Regional Weather Roundup
Issued by NWS

Home | Current Version | Previous Version | Graphics & Text | Print | Product List | Glossary On
Versions: 1 2 3 4 5 6 7 8 9 10 11 12 13 14 15 16 17 18 19 20 21 22 23 24 25 26 27 28 29 30 31 32 33 34 35 36 37 38 39 40 41 42 43 44 45 46 47 48 49 50
000
ASUS45 KSLC 210710
RWRUT

UTAH REGIONAL WEATHER ROUNDUP
NATIONAL WEATHER SERVICE SALT LAKE CITY UT
100 AM MDT SUN SEP 21 2014

UTZ001>011-023>025-210800-

NORTHERN UTAH

CITY           SKY/WX    TMP DP  RH WIND       PRES   REMARKS
HILL AFB       MOCLDY    66  46  47 E10       30.13R
LOGAN          CLEAR     57  48  72 NW3       30.11F
OGDEN          MOCLDY    69  47  45 S8        30.10R
PROVO AIRPORT  MOCLDY    63  50  63 CALM      30.12S
SALT LAKE CITY MOCLDY    70  46  42 E3        30.08S
VERNAL         CLEAR     61  34  36 NW7       30.16F
WENDOVER       CLOUDY    72  41  33 NW6       30.10S
HEBER CITY     PTCLDY    54  43  66 CALM      30.18S
WEST JORDAN    CLEAR     64  41  42 CALM      30.11S

$$

UTZ012>022-026-027-210800-

SOUTHERN UTAH

CITY           SKY/WX    TMP DP  RH WIND       PRES   REMARKS
BRYCE CANYON   RAIN      53  51  93 N7        30.34R
CEDAR CITY     LGT RAIN  61  54  77 NE13G28   30.13F
MILFORD        CLOUDY    62  59  90 S7        30.16R
MOAB/CYNLANDS  CLEAR     80  35  19 NE18      30.00R
PRICE          CLOUDY    71  38  29 N8        30.15F
ST GEORGE      MOSUNNY   72  57  60 SE3       30.01R
KANAB          MOCLDY    64  54  68 CALM      30.16S

$$

REGIONAL REPORTS     COLORADO/ARIZONA

CITY           SKY/WX    TMP DP  RH WIND       PRES   REMARKS
CRAIG, CO      CLEAR     44  35  70 CALM      30.26S
GRAND JUNCTION PTCLDY    68  42  38 SE9       30.10S
RIFLE          CLEAR     60  43  53 SE7       30.19R
MONTROSE       PTCLDY    66  48  52 E6        30.20F
CORTEZ         LGT RAIN  71  50  47 SE30G45   30.19R
PAGE, AZ       CLOUDY    75  52  44 N5        30.09R
GRAND CANYON   CLOUDY    57  53  86 CALM      30.24R
KINGMAN        MOCLDY    77  56  48 S9        29.99S
FLAGSTAFF      MOCLDY    59  54  83 SW3       30.29R

$$

REGIONAL REPORTS    NEVADA/IDAHO/WYOMING

CITY           SKY/WX    TMP DP  RH WIND       PRES   REMARKS
LAS VEGAS, NV  CLOUDY    81  57  43 NE6       29.88S THUNDER
ELY            CLOUDY    58  51  78 N7        30.25S
ELKO           CLOUDY    63  48  58 SW5       30.20R
POCATELLO, ID  CLEAR     53  46  77 W5        30.13F
BURLEY         MOCLDY    53  47  79 CALM      30.09S
EVANSTON, WY   PTCLDY    59  29  31 NE8       30.29F
ROCK SPRINGS   CLEAR     52  37  56 CALM      30.33R

$$


USA.gov is the U.S. government's official web portal to all federal, state and local government web resources and services.